GW5440 Weather Reports


time (UTC)temp
C
wind
direction
speed
KPH
gust
KPH
rain 1hr
cm
rain 24hr
cm
rain mn
cm
humidity
%
barometer
mb
20260502170202 19 209 1.6 8.0 0.00 0.00 0.00 22 1019.4
20260502164002 18 230 3.2 6.4 0.00 0.00 0.00 28 1019.5
20260502163802 18 284 1.6 4.8 0.00 0.00 0.00 31 1019.4
20260502163602 18 284 1.6 4.8 0.00 0.00 0.00 29 1019.4
20260502163402 18 284 0.0 4.8 0.00 0.00 0.00 30 1019.4
20260502163202 17 284 1.6 6.4 0.00 0.00 0.00 28 1019.5
20260502163001 17 285 3.2 6.4 0.00 0.00 0.00 29 1019.4
20260502162800 17 288 1.6 6.4 0.00 0.00 0.00 27 1019.4
20260502162602 17 288 3.2 6.4 0.00 0.00 0.00 30 1019.5
20260502162401 17 288 3.2 6.4 0.00 0.00 0.00 30 1019.5
20260502162201 17 288 1.6 6.4 0.00 0.00 0.00 30 1019.4
20260502162001 17 288 1.6 6.4 0.00 0.00 0.00 31 1019.5
20260502161801 17 287 3.2 6.4 0.00 0.00 0.00 31 1019.4
20260502161601 17 287 3.2 4.8 0.00 0.00 0.00 31 1019.4
20260502161402 17 287 1.6 6.4 0.00 0.00 0.00 32 1019.4
20260502161203 17 287 1.6 6.4 0.00 0.00 0.00 33 1019.4
20260502161001 17 287 1.6 6.4 0.00 0.00 0.00 34 1019.4
20260502160601 17 287 3.2 6.4 0.00 0.00 0.00 33 1019.4
20260502160401 17 269 1.6 4.8 0.00 0.00 0.00 34 1019.4
20260502160200 17 269 1.6 4.8 0.00 0.00 0.00 34 1019.5
20260502152200 15 277 0.0 3.2 0.00 0.00 0.00 33 1019.6
20260502151201 15 343 1.6 4.8 0.00 0.00 0.00 32 1019.6
20260502151000 15 291 0.0 3.2 0.00 0.00 0.00 32 1019.6
20260502150600 15 290 0.0 3.2 0.00 0.00 0.00 33 1019.6
20260502150359 15 290 0.0 3.2 0.00 0.00 0.00 32 1019.6
20260502150200 15 290 1.6 3.2 0.00 0.00 0.00 32 1019.6
20260502130601 6 93 0.0 0.0 0.00 0.00 0.00 54 1019.2
20260502130202 6 93 0.0 0.0 0.00 0.00 0.00 54 1019.2
20260502123601 7 93 0.0 0.0 0.00 0.00 0.00 51 1019.1
20260502123201 7 93 0.0 0.0 0.00 0.00 0.00 51 1019.0
20260502123000 7 93 0.0 0.0 0.00 0.00 0.00 51 1019.0
20260502122801 7 93 0.0 0.0 0.00 0.00 0.00 51 1019.0
20260502122600 7 93 0.0 0.0 0.00 0.00 0.00 52 1019.0
20260502122402 7 93 0.0 0.0 0.00 0.00 0.00 51 1018.9
20260502122159 7 93 0.0 0.0 0.00 0.00 0.00 51 1019.0
20260502122000 7 93 0.0 0.0 0.00 0.00 0.00 52 1019.0
20260502121800 7 93 0.0 0.0 0.00 0.00 0.00 52 1019.0
20260502121400 7 93 0.0 0.0 0.00 0.00 0.00 51 1019.0
20260502121200 7 93 0.0 0.0 0.00 0.00 0.00 51 1019.0
20260502121000 7 93 0.0 0.0 0.00 0.00 0.00 51 1018.9
20260502120800 7 93 0.0 0.0 0.00 0.00 0.00 51 1018.9
20260502120600 7 93 0.0 0.0 0.00 0.00 0.00 51 1018.9
20260502120159 7 93 0.0 0.0 0.00 0.00 0.00 51 1018.9
20260502115759 7 93 0.0 0.0 0.00 0.00 0.00 51 1018.9
20260502115559 7 93 0.0 0.0 0.00 0.00 0.00 51 1018.9
20260502115400 7 93 0.0 0.0 0.00 0.00 0.00 51 1018.8
20260502115201 7 93 0.0 0.0 0.00 0.00 0.00 51 1018.9
20260502114800 7 93 0.0 3.2 0.00 0.00 0.00 52 1018.9
20260502114600 7 93 0.0 4.8 0.00 0.00 0.00 52 1018.9
20260502114400 7 93 0.0 4.8 0.00 0.00 0.00 52 1019.0
20260502114201 7 93 1.6 4.8 0.00 0.00 0.00 52 1018.9
20260502114000 7 93 1.6 4.8 0.00 0.00 0.00 52 1019.0
20260502113850 7 93 1.6 6.4 0.00 0.00 0.00 52 1018.9
20260502113001 7 93 3.2 4.8 0.00 0.00 0.00 52 1019.0
20260502112801 7 93 3.2 4.8 0.00 0.00 0.00 53 1019.0
20260502112600 7 112 1.6 3.2 0.00 0.00 0.00 53 1019.0
20260502112401 7 112 1.6 4.8 0.00 0.00 0.00 53 1019.0
20260502112202 7 112 1.6 4.8 0.00 0.00 0.00 53 1019.0
20260502112001 7 112 1.6 4.8 0.00 0.00 0.00 53 1019.0
20260502111801 7 112 3.2 4.8 0.00 0.00 0.00 53 1019.0
20260502111601 7 112 3.2 4.8 0.00 0.00 0.00 53 1019.0
20260502111001 7 70 1.6 3.2 0.00 0.00 0.00 51 1019.0
20260502110801 7 70 0.0 3.2 0.00 0.00 0.00 51 1019.0
20260502110601 7 70 0.0 0.0 0.00 0.00 0.00 51 1019.0
20260502110201 8 70 0.0 0.0 0.00 0.00 0.00 51 1019.0
20260502110002 8 70 0.0 0.0 0.00 0.00 0.00 51 1019.0
20260502105802 8 70 0.0 0.0 0.00 0.00 0.00 51 1019.1
20260502105601 8 70 0.0 0.0 0.00 0.00 0.00 52 1019.0
20260502105402 8 70 0.0 0.0 0.00 0.00 0.00 51 1019.1
20260502105200 8 70 0.0 0.0 0.00 0.00 0.00 50 1019.0
20260502105002 8 70 0.0 0.0 0.00 0.00 0.00 50 1019.0
20260502104601 8 70 0.0 0.0 0.00 0.00 0.00 51 1019.0
20260502104401 8 70 0.0 0.0 0.00 0.00 0.00 51 1019.0
20260502104000 8 70 0.0 0.0 0.00 0.00 0.00 53 1018.9
20260502103801 8 70 0.0 0.0 0.00 0.00 0.00 53 1019.0
20260502103402 8 70 0.0 0.0 0.00 0.00 0.00 54 1019.0
20260502103201 8 70 0.0 0.0 0.00 0.00 0.00 54 1019.0
20260502103001 8 70 0.0 0.0 0.00 0.00 0.00 55 1019.0
20260502102601 8 70 0.0 0.0 0.00 0.00 0.00 55 1019.0
20260502102400 8 70 0.0 0.0 0.00 0.00 0.00 55 1019.0
20260502102201 8 70 0.0 0.0 0.00 0.00 0.00 55 1019.0
20260502102000 8 70 0.0 0.0 0.00 0.00 0.00 55 1018.9
20260502101801 8 70 0.0 1.6 0.00 0.00 0.00 54 1019.0
20260502101402 8 70 0.0 4.8 0.00 0.00 0.00 54 1018.8
20260502101201 8 70 0.0 4.8 0.00 0.00 0.00 54 1018.8
20260502101002 8 70 0.0 4.8 0.00 0.00 0.00 54 1018.8
20260502100802 8 70 1.6 4.8 0.00 0.00 0.00 54 1018.8
20260502100602 8 70 1.6 6.4 0.00 0.00 0.00 54 1018.8
20260502100402 8 70 1.6 6.4 0.00 0.00 0.00 54 1018.8
20260502100202 8 70 1.6 6.4 0.00 0.00 0.00 54 1018.8
20260502091359 8 360 0.0 3.2 0.00 0.00 0.00 57 1018.9
20260502091200 8 360 0.0 3.2 0.00 0.00 0.00 57 1018.8
20260502091000 8 360 0.0 3.2 0.00 0.00 0.00 57 1018.8
20260502090800 7 360 0.0 4.8 0.00 0.00 0.00 57 1018.9
20260502090600 7 360 1.6 4.8 0.00 0.00 0.00 57 1018.8
20260502090359 7 355 1.6 4.8 0.00 0.00 0.00 57 1018.8
20260502090159 7 355 0.0 4.8 0.00 0.00 0.00 57 1018.8
20260502071201 8 265 0.0 0.0 0.00 0.00 0.00 56 1018.6
20260502071001 8 265 0.0 0.0 0.00 0.00 0.00 56 1018.5
20260502070801 8 265 0.0 0.0 0.00 0.00 0.00 56 1018.5
20260502070601 8 265 0.0 0.0 0.00 0.00 0.00 56 1018.5
20260502070202 8 265 0.0 0.0 0.00 0.00 0.00 57 1018.6
20260502065801 8 265 0.0 0.0 0.00 0.00 0.00 57 1018.6
20260502065603 8 265 0.0 0.0 0.00 0.00 0.00 58 1018.6
20260502065403 8 265 0.0 0.0 0.00 0.00 0.00 57 1018.6
20260502065202 8 265 0.0 0.0 0.00 0.00 0.00 58 1018.6
20260502065002 8 265 0.0 0.0 0.00 0.00 0.00 58 1018.7
20260502064802 8 265 0.0 0.0 0.00 0.00 0.00 57 1018.7
20260502064601 8 265 0.0 0.0 0.00 0.00 0.00 58 1018.7
20260502064402 8 265 0.0 0.0 0.00 0.00 0.00 58 1018.7
20260502064203 8 265 0.0 0.0 0.00 0.00 0.00 57 1018.7
20260502064002 8 265 0.0 0.0 0.00 0.00 0.00 57 1018.7
20260502063803 8 265 0.0 0.0 0.00 0.00 0.00 57 1018.7
20260502063601 8 265 0.0 0.0 0.00 0.00 0.00 57 1018.7
20260502063402 8 265 0.0 0.0 0.00 0.00 0.00 57 1018.7
20260502063202 8 265 0.0 0.0 0.00 0.00 0.00 58 1018.7
20260502063002 8 265 0.0 0.0 0.00 0.00 0.00 58 1018.7
20260502062802 8 265 0.0 0.0 0.00 0.00 0.00 58 1018.7
20260502062402 8 265 0.0 0.0 0.00 0.00 0.00 57 1018.8
20260502062003 8 265 0.0 3.2 0.00 0.00 0.00 57 1018.8
20260502061802 8 265 0.0 3.2 0.00 0.00 0.00 57 1018.7
20260502061403 9 265 1.6 4.8 0.00 0.00 0.00 57 1018.8
20260502060802 9 265 0.0 0.0 0.00 0.00 0.00 53 1018.7
20260502060602 9 265 0.0 0.0 0.00 0.00 0.00 54 1018.7
20260502060402 9 265 0.0 0.0 0.00 0.00 0.00 54 1018.7
20260502060202 9 265 0.0 0.0 0.00 0.00 0.00 54 1018.7
20260502060006 9 265 0.0 0.0 0.00 0.00 0.00 54 1018.6
20260502055803 9 265 0.0 0.0 0.00 0.00 0.00 54 1018.6
20260502055603 9 265 0.0 0.0 0.00 0.00 0.00 54 1018.6
20260502055403 9 265 0.0 0.0 0.00 0.00 0.00 54 1018.5
20260502055002 9 265 0.0 0.0 0.00 0.00 0.00 54 1018.5
20260502054803 10 265 0.0 0.0 0.00 0.00 0.00 53 1018.6
20260502054603 10 265 0.0 0.0 0.00 0.00 0.00 54 1018.5
20260502054404 10 265 0.0 0.0 0.00 0.00 0.00 53 1018.5
20260502054204 10 265 0.0 0.0 0.00 0.00 0.00 54 1018.5
20260502054004 10 265 0.0 0.0 0.00 0.00 0.00 53 1018.4
20260502053803 10 265 0.0 0.0 0.00 0.00 0.00 52 1018.4
20260502053603 10 265 0.0 0.0 0.00 0.00 0.00 52 1018.4
20260502053402 10 265 0.0 0.0 0.00 0.00 0.00 52 1018.4
20260502053203 10 265 0.0 0.0 0.00 0.00 0.00 51 1018.5
20260502053003 10 265 0.0 0.0 0.00 0.00 0.00 51 1018.5
20260502052603 10 265 0.0 0.0 0.00 0.00 0.00 51 1018.5
20260502052403 10 265 0.0 0.0 0.00 0.00 0.00 51 1018.5
20260502052203 11 265 0.0 0.0 0.00 0.00 0.00 51 1018.5
20260502052003 11 306 0.0 0.0 0.00 0.00 0.00 50 1018.5
20260502051803 11 306 0.0 0.0 0.00 0.00 0.00 50 1018.5
20260502051603 11 306 0.0 0.0 0.00 0.00 0.00 49 1018.5
20260502051203 11 306 0.0 0.0 0.00 0.00 0.00 50 1018.5
20260502051002 11 306 0.0 0.0 0.00 0.00 0.00 50 1018.5
20260502050802 11 306 0.0 0.0 0.00 0.00 0.00 50 1018.5
20260502050604 11 306 0.0 0.0 0.00 0.00 0.00 50 1018.5
20260502050404 11 306 0.0 0.0 0.00 0.00 0.00 50 1018.4
20260502050203 11 306 0.0 0.0 0.00 0.00 0.00 50 1018.5
20260502050004 11 306 0.0 0.0 0.00 0.00 0.00 50 1018.5
20260502045802 11 306 0.0 0.0 0.00 0.00 0.00 50 1018.5
20260502045602 11 306 0.0 1.6 0.00 0.00 0.00 50 1018.5
20260502045401 11 306 0.0 1.6 0.00 0.00 0.00 51 1018.4
20260502045002 11 306 0.0 1.6 0.00 0.00 0.00 50 1018.5
20260502044802 11 306 0.0 1.6 0.00 0.00 0.00 50 1018.4
20260502044602 11 306 0.0 1.6 0.00 0.00 0.00 49 1018.4
20260502044201 11 306 0.0 1.6 0.00 0.00 0.00 49 1018.4
20260502043803 11 306 0.0 1.6 0.00 0.00 0.00 49 1018.4
20260502043202 11 306 0.0 1.6 0.00 0.00 0.00 49 1018.4
20260502043003 11 306 0.0 1.6 0.00 0.00 0.00 48 1018.3
20260502042802 11 306 0.0 0.0 0.00 0.00 0.00 48 1018.3
20260502042602 11 306 0.0 0.0 0.00 0.00 0.00 48 1018.3
20260502042402 11 306 0.0 0.0 0.00 0.00 0.00 48 1018.3
20260502042003 11 306 0.0 0.0 0.00 0.00 0.00 47 1018.3
20260502041801 12 306 0.0 0.0 0.00 0.00 0.00 47 1018.3
20260502041401 12 306 0.0 0.0 0.00 0.00 0.00 47 1018.3
20260502041001 12 306 0.0 0.0 0.00 0.00 0.00 45 1018.3
20260502040603 12 306 0.0 0.0 0.00 0.00 0.00 45 1018.3
20260502040401 12 306 0.0 1.6 0.00 0.00 0.00 45 1018.2
20260502040202 12 306 0.0 3.2 0.00 0.00 0.00 45 1018.2
20260502040005 12 306 0.0 3.2 0.00 0.00 0.00 45 1018.2
20260502035802 12 306 0.0 3.2 0.00 0.00 0.00 45 1018.2
20260502035601 12 306 1.6 3.2 0.00 0.00 0.00 43 1018.1
20260502035402 12 306 1.6 1.6 0.00 0.00 0.00 44 1018.1
20260502035202 12 306 0.0 3.2 0.00 0.00 0.00 44 1018.2
20260502035002 12 306 0.0 3.2 0.00 0.00 0.00 44 1018.1
20260502034802 12 306 0.0 3.2 0.00 0.00 0.00 44 1018.1
20260502034602 12 306 0.0 3.2 0.00 0.00 0.00 45 1018.1
20260502034402 12 306 1.6 3.2 0.00 0.00 0.00 45 1018.1
20260502034201 12 306 1.6 1.6 0.00 0.00 0.00 44 1018.0
20260502034002 12 306 0.0 1.6 0.00 0.00 0.00 45 1018.0
20260502033802 12 306 0.0 0.0 0.00 0.00 0.00 45 1017.9
20260502033602 12 306 0.0 0.0 0.00 0.00 0.00 44 1017.9
20260502033402 12 306 0.0 1.6 0.00 0.00 0.00 45 1017.9
20260502033201 12 306 0.0 1.6 0.00 0.00 0.00 45 1017.9
20260502032802 12 306 0.0 1.6 0.00 0.00 0.00 45 1017.8
20260502032601 12 306 0.0 1.6 0.00 0.00 0.00 46 1017.8
20260502032402 12 306 0.0 1.6 0.00 0.00 0.00 46 1017.8
20260502032201 12 306 0.0 3.2 0.00 0.00 0.00 46 1017.8
20260502031801 12 306 0.0 3.2 0.00 0.00 0.00 47 1017.8
20260502031601 12 306 0.0 1.6 0.00 0.00 0.00 46 1017.7
20260502031402 12 306 0.0 1.6 0.00 0.00 0.00 46 1017.7
20260502031003 12 306 0.0 1.6 0.00 0.00 0.00 46 1017.6
20260502030801 13 306 0.0 1.6 0.00 0.00 0.00 46 1017.6
20260502030602 13 306 0.0 0.0 0.00 0.00 0.00 46 1017.5
20260502030402 13 306 0.0 0.0 0.00 0.00 0.00 46 1017.5
20260502030202 13 306 0.0 0.0 0.00 0.00 0.00 45 1017.5
20260502030002 13 306 0.0 0.0 0.00 0.00 0.00 45 1017.5
20260502025802 13 306 0.0 0.0 0.00 0.00 0.00 45 1017.4
20260502025602 13 306 0.0 0.0 0.00 0.00 0.00 44 1017.4
20260502025202 13 306 0.0 0.0 0.00 0.00 0.00 44 1017.4
20260502025002 13 306 0.0 0.0 0.00 0.00 0.00 44 1017.4
20260502024802 13 306 0.0 0.0 0.00 0.00 0.00 43 1017.4
20260502024402 13 306 0.0 3.2 0.00 0.00 0.00 44 1017.3
20260502024002 14 306 0.0 3.2 0.00 0.00 0.00 43 1017.3
20260502023802 14 306 0.0 1.6 0.00 0.00 0.00 43 1017.2
20260502023601 14 306 0.0 1.6 0.00 0.00 0.00 43 1017.3
20260502023402 14 306 0.0 1.6 0.00 0.00 0.00 43 1017.2
20260502023003 15 306 0.0 1.6 0.00 0.00 0.00 42 1017.3
20260502022802 15 306 0.0 3.2 0.00 0.00 0.00 42 1017.2
20260502022601 15 306 0.0 3.2 0.00 0.00 0.00 41 1017.2
20260502022402 15 306 0.0 3.2 0.00 0.00 0.00 41 1017.2
20260502022202 15 306 0.0 3.2 0.00 0.00 0.00 40 1017.1
20260502022001 15 306 1.6 3.2 0.00 0.00 0.00 40 1017.1
20260502021803 15 306 1.6 3.2 0.00 0.00 0.00 40 1017.1
20260502021601 15 307 1.6 3.2 0.00 0.00 0.00 40 1017.1
20260502021402 15 307 0.0 3.2 0.00 0.00 0.00 40 1017.1
20260502021202 16 307 1.6 3.2 0.00 0.00 0.00 39 1017.1
20260502021002 16 307 1.6 4.8 0.00 0.00 0.00 39 1017.1
20260502020801 16 308 1.6 4.8 0.00 0.00 0.00 39 1017.0
20260502020401 16 309 1.6 6.4 0.00 0.00 0.00 38 1017.0
20260502020202 16 294 0.0 9.7 0.00 0.00 0.00 37 1017.0
20260502020004 16 289 3.2 9.7 0.00 0.00 0.00 37 1017.0
20260502015802 16 298 3.2 12.9 0.00 0.00 0.00 36 1016.9
20260502015602 17 288 4.8 12.9 0.00 0.00 0.00 36 1017.0
20260502015403 17 305 4.8 12.9 0.00 0.00 0.00 34 1017.0
20260502015203 17 290 6.4 12.9 0.00 0.00 0.00 34 1016.9
20260502015003 17 304 4.8 11.3 0.00 0.00 0.00 34 1016.9
20260502014603 17 319 4.8 9.7 0.00 0.00 0.00 34 1016.9
20260502014402 17 298 3.2 6.4 0.00 0.00 0.00 34 1016.9
20260502014203 17 273 3.2 6.4 0.00 0.00 0.00 33 1016.9
20260502013802 17 292 3.2 8.0 0.00 0.00 0.00 33 1016.9
20260502013603 17 279 3.2 8.0 0.00 0.00 0.00 32 1016.8
20260502013403 17 281 3.2 8.0 0.00 0.00 0.00 31 1016.8
20260502013003 18 274 3.2 9.7 0.00 0.00 0.00 31 1016.8
20260502012803 18 272 4.8 12.9 0.00 0.00 0.00 32 1016.8
20260502012403 18 281 4.8 14.5 0.00 0.00 0.00 31 1016.8
20260502012202 18 280 4.8 14.5 0.00 0.00 0.00 31 1016.8
20260502011802 18 284 4.8 14.5 0.00 0.00 0.00 31 1016.8
20260502011603 18 263 6.4 14.5 0.00 0.00 0.00 31 1016.7
20260502011403 18 263 8.0 14.5 0.00 0.00 0.00 33 1016.6
20260502011202 18 290 8.0 12.9 0.00 0.00 0.00 33 1016.7
20260502010803 18 183 3.2 11.3 0.00 0.00 0.00 32 1016.7
20260502010603 18 223 3.2 11.3 0.00 0.00 0.00 32 1016.8
20260502010203 18 277 4.8 9.7 0.00 0.00 0.00 32 1016.7
20260502010005 18 265 6.4 14.5 0.00 0.00 0.00 32 1016.8
20260502005802 18 282 4.8 16.1 0.00 0.00 0.00 32 1016.7
20260502005602 18 307 4.8 16.1 0.00 0.00 0.00 31 1016.7
20260502005401 18 269 6.4 16.1 0.00 0.00 0.00 32 1016.7
20260502005201 18 270 6.4 16.1 0.00 0.00 0.00 32 1016.7
20260502005002 19 276 6.4 17.7 0.00 0.00 0.00 29 1016.8
20260502004802 19 284 4.8 17.7 0.00 0.00 0.00 28 1016.7
20260502004601 19 302 6.4 17.7 0.00 0.00 0.00 29 1016.7
20260502004402 19 296 9.7 17.7 0.00 0.00 0.00 28 1016.7
20260502004003 19 302 6.4 14.5 0.00 0.00 0.00 27 1016.7
20260502003802 19 287 8.0 14.5 0.00 0.00 0.00 27 1016.7
20260502003602 19 287 8.0 14.5 0.00 0.00 0.00 27 1016.7
20260502003402 19 331 8.0 14.5 0.00 0.00 0.00 26 1016.6
20260502003201 19 284 6.4 14.5 0.00 0.00 0.00 27 1016.7
20260502003001 19 306 6.4 14.5 0.00 0.00 0.00 27 1016.7
20260502002603 19 268 6.4 16.1 0.00 0.00 0.00 26 1016.7
20260502002401 19 291 6.4 16.1 0.00 0.00 0.00 28 1016.8
20260502002203 19 331 8.0 16.1 0.00 0.00 0.00 27 1016.8
20260502002001 19 299 9.7 16.1 0.00 0.00 0.00 27 1016.8
20260502001802 20 282 8.0 14.5 0.00 0.00 0.00 27 1016.8
20260502001601 20 302 6.4 14.5 0.00 0.00 0.00 26 1016.8
20260502001403 20 309 4.8 14.5 0.00 0.00 0.00 26 1016.8
20260502001201 20 280 4.8 14.5 0.00 0.00 0.00 26 1016.8
20260502001002 19 262 4.8 14.5 0.00 0.00 0.00 26 1016.8
20260502000802 19 294 6.4 14.5 0.00 0.00 0.00 27 1016.8
20260502000602 19 301 6.4 17.7 0.00 0.00 0.00 26 1016.8
20260502000402 19 306 4.8 17.7 0.00 0.00 0.00 26 1016.9
20260502000203 19 45 6.4 17.7 0.00 0.00 0.00 25 1016.9
20260501235802 19 328 6.4 17.7 0.00 0.00 0.00 27 1016.9
20260501235601 19 326 6.4 14.5 0.00 0.00 0.00 28 1016.9
20260501234802 19 295 8.0 14.5 0.00 0.00 0.00 28 1016.8
20260501234601 19 292 6.4 16.1 0.00 0.00 0.00 27 1016.9
20260501234402 19 326 6.4 16.1 0.00 0.00 0.00 27 1016.9
20260501234201 19 296 6.4 16.1 0.00 0.00 0.00 27 1016.9
20260501233802 19 329 9.7 24.1 0.00 0.00 0.00 27 1017.0
20260501233601 19 306 6.4 24.1 0.00 0.00 0.00 27 1017.0
20260501233402 19 304 9.7 24.1 0.00 0.00 0.00 27 1017.0
20260501233202 19 299 8.0 24.1 0.00 0.00 0.00 28 1017.0
20260501232802 19 279 8.0 14.5 0.00 0.00 0.00 27 1017.0
20260501232602 19 291 8.0 19.3 0.00 0.00 0.00 28 1017.0
20260501232401 19 259 8.0 19.3 0.00 0.00 0.00 28 1017.0
20260501232202 18 343 8.0 19.3 0.00 0.00 0.00 28 1017.0
20260501232002 18 327 8.0 19.3 0.00 0.00 0.00 28 1017.0
20260501231801 18 303 9.7 19.3 0.00 0.00 0.00 29 1017.0
20260501231602 18 257 9.7 19.3 0.00 0.00 0.00 28 1017.0
20260501231403 18 298 11.3 19.3 0.00 0.00 0.00 28 1017.1
20260501231201 19 284 11.3 22.5 0.00 0.00 0.00 28 1017.1
20260501230801 18 321 9.7 22.5 0.00 0.00 0.00 28 1017.1
20260501230601 18 301 11.3 25.7 0.00 0.00 0.00 27 1017.1
20260501230402 18 298 11.3 25.7 0.00 0.00 0.00 28 1017.1
20260501230004 18 272 11.3 25.7 0.00 0.00 0.00 26 1017.2
20260501225602 19 327 8.0 19.3 0.00 0.00 0.00 27 1017.1
20260501225402 19 259 6.4 19.3 0.00 0.00 0.00 29 1017.1
20260501225202 18 334 8.0 19.3 0.00 0.00 0.00 28 1017.2
20260501224801 18 300 8.0 19.3 0.00 0.00 0.00 28 1017.2
20260501224601 18 288 9.7 19.3 0.00 0.00 0.00 27 1017.1
20260501224403 18 249 12.9 20.9 0.00 0.00 0.00 28 1017.2
20260501224203 18 313 11.3 20.9 0.00 0.00 0.00 28 1017.2
20260501224002 19 298 6.4 20.9 0.00 0.00 0.00 27 1017.2
20260501223802 18 277 6.4 20.9 0.00 0.00 0.00 26 1017.3
20260501223401 18 338 9.7 25.7 0.00 0.00 0.00 27 1017.4
20260501223202 18 272 11.3 25.7 0.00 0.00 0.00 28 1017.3
20260501223001 18 289 14.5 25.7 0.00 0.00 0.00 27 1017.3
20260501222802 18 278 11.3 19.3 0.00 0.00 0.00 27 1017.4
20260501222602 18 242 9.7 19.3 0.00 0.00 0.00 27 1017.5
20260501222201 19 303 8.0 19.3 0.00 0.00 0.00 27 1017.6
20260501222002 18 360 6.4 19.3 0.00 0.00 0.00 29 1017.6
20260501221802 18 315 9.7 20.9 0.00 0.00 0.00 28 1017.5
20260501221602 18 336 12.9 20.9 0.00 0.00 0.00 29 1017.6
20260501221402 18 313 11.3 22.5 0.00 0.00 0.00 27 1017.5
20260501221201 18 321 11.3 22.5 0.00 0.00 0.00 27 1017.6
20260501221002 18 294 9.7 22.5 0.00 0.00 0.00 27 1017.6
20260501220801 18 292 11.3 22.5 0.00 0.00 0.00 28 1017.6
20260501220602 18 317 11.3 22.5 0.00 0.00 0.00 27 1017.6
20260501220402 18 322 9.7 20.9 0.00 0.00 0.00 27 1017.6
20260501220202 19 278 8.0 20.9 0.00 0.00 0.00 26 1017.7
20260501215602 18 298 6.4 24.1 0.00 0.00 0.00 28 1017.7
20260501215401 18 351 11.3 24.1 0.00 0.00 0.00 28 1017.7
20260501215201 18 281 8.0 24.1 0.00 0.00 0.00 29 1017.7
20260501214802 18 281 16.1 24.1 0.00 0.00 0.00 28 1017.8
20260501214602 18 296 12.9 22.5 0.00 0.00 0.00 28 1017.8
20260501214402 18 340 9.7 22.5 0.00 0.00 0.00 29 1017.7
20260501214202 18 309 8.0 24.1 0.00 0.00 0.00 29 1017.8
20260501214002 18 281 12.9 24.1 0.00 0.00 0.00 30 1017.8
20260501213601 18 294 12.9 24.1 0.00 0.00 0.00 28 1017.9
20260501213402 18 287 14.5 22.5 0.00 0.00 0.00 30 1017.9
20260501213202 18 278 8.0 22.5 0.00 0.00 0.00 31 1017.8
20260501213002 18 313 12.9 22.5 0.00 0.00 0.00 30 1017.9
20260501212802 18 288 12.9 22.5 0.00 0.00 0.00 28 1017.9
20260501212602 18 306 14.5 22.5 0.00 0.00 0.00 29 1017.9
20260501212401 18 276 11.3 17.7 0.00 0.00 0.00 29 1018.0
20260501212201 18 300 11.3 17.7 0.00 0.00 0.00 27 1018.0
20260501212001 18 231 8.0 19.3 0.00 0.00 0.00 29 1018.0
20260501211802 18 283 8.0 25.7 0.00 0.00 0.00 30 1018.0
20260501211601 18 257 8.0 25.7 0.00 0.00 0.00 30 1017.9
20260501211402 18 263 11.3 25.7 0.00 0.00 0.00 30 1018.0
20260501210802 18 289 11.3 22.5 0.00 0.00 0.00 29 1018.0
20260501210601 18 304 11.3 22.5 0.00 0.00 0.00 27 1018.0
20260501210201 18 308 12.9 22.5 0.00 0.00 0.00 29 1018.0
20260501210001 18 257 11.3 22.5 0.00 0.00 0.00 29 1018.0
20260501205800 18 306 11.3 22.5 0.00 0.00 0.00 29 1018.1
20260501205400 18 254 11.3 22.5 0.00 0.00 0.00 30 1018.0
20260501205200 18 253 12.9 22.5 0.00 0.00 0.00 28 1018.1
20260501205001 18 261 11.3 20.9 0.00 0.00 0.00 28 1018.1
20260501204600 18 263 8.0 19.3 0.00 0.00 0.00 28 1018.1
20260501204401 18 277 8.0 19.3 0.00 0.00 0.00 28 1018.1
20260501204201 18 237 8.0 22.5 0.00 0.00 0.00 28 1018.2
20260501204001 18 287 9.7 22.5 0.00 0.00 0.00 29 1018.2
20260501203801 18 277 6.4 22.5 0.00 0.00 0.00 30 1018.2
20260501203600 18 278 9.7 22.5 0.00 0.00 0.00 28 1018.2
20260501203401 18 248 11.3 22.5 0.00 0.00 0.00 28 1018.2
20260501203202 18 290 8.0 17.7 0.00 0.00 0.00 27 1018.1
20260501203001 18 302 8.0 17.7 0.00 0.00 0.00 28 1018.1
20260501202801 18 325 8.0 17.7 0.00 0.00 0.00 29 1018.2
20260501202401 18 290 4.8 17.7 0.00 0.00 0.00 31 1018.1
20260501202201 18 292 6.4 17.7 0.00 0.00 0.00 31 1018.1
20260501202001 18 279 6.4 17.7 0.00 0.00 0.00 29 1018.2
20260501201800 18 192 9.7 17.7 0.00 0.00 0.00 29 1018.2
20260501201600 18 321 6.4 17.7 0.00 0.00 0.00 30 1018.2
20260501201401 18 267 11.3 17.7 0.00 0.00 0.00 29 1018.1
20260501201201 18 302 9.7 17.7 0.00 0.00 0.00 30 1018.2
20260501201000 17 292 6.4 17.7 0.00 0.00 0.00 31 1018.2
20260501200800 18 302 6.4 17.7 0.00 0.00 0.00 28 1018.2
20260501200601 18 330 9.7 19.3 0.00 0.00 0.00 29 1018.3
20260501200401 18 314 9.7 19.3 0.00 0.00 0.00 31 1018.2
20260501200201 18 309 4.8 19.3 0.00 0.00 0.00 29 1018.2
20260501200004 18 239 9.7 19.3 0.00 0.00 0.00 29 1018.3
20260501195603 18 263 8.0 16.1 0.00 0.00 0.00 29 1018.3
20260501195402 18 261 4.8 14.5 0.00 0.00 0.00 30 1018.3
20260501195201 18 252 6.4 14.5 0.00 0.00 0.00 27 1018.3
20260501195002 18 217 4.8 14.5 0.00 0.00 0.00 29 1018.3
20260501194801 17 269 3.2 14.5 0.00 0.00 0.00 28 1018.4
20260501194402 18 315 4.8 16.1 0.00 0.00 0.00 28 1018.5
20260501194203 17 248 4.8 16.1 0.00 0.00 0.00 30 1018.5
20260501194002 17 306 6.4 16.1 0.00 0.00 0.00 28 1018.5
20260501193802 18 265 6.4 16.1 0.00 0.00 0.00 27 1018.5
20260501193604 18 329 3.2 14.5 0.00 0.00 0.00 29 1018.4
20260501193402 17 294 4.8 14.5 0.00 0.00 0.00 25 1018.5
20260501193201 18 299 6.4 16.1 0.00 0.00 0.00 27 1018.5
20260501193002 18 217 6.4 16.1 0.00 0.00 0.00 28 1018.5
20260501192401 18 301 9.7 16.1 0.00 0.00 0.00 26 1018.5
20260501192202 18 285 4.8 12.9 0.00 0.00 0.00 27 1018.6
20260501192002 18 257 4.8 12.9 0.00 0.00 0.00 29 1018.6
20260501191802 18 296 4.8 12.9 0.00 0.00 0.00 28 1018.6
20260501191602 18 207 6.4 12.9 0.00 0.00 0.00 25 1018.7
20260501191402 18 83 4.8 16.1 0.00 0.00 0.00 27 1018.6
20260501191202 18 294 3.2 16.1 0.00 0.00 0.00 26 1018.7
20260501191002 18 265 4.8 16.1 0.00 0.00 0.00 27 1018.7
20260501190603 18 196 6.4 12.9 0.00 0.00 0.00 26 1018.7
20260501190402 18 293 3.2 12.9 0.00 0.00 0.00 27 1018.7
20260501190201 18 190 3.2 12.9 0.00 0.00 0.00 25 1018.7
20260501190003 17 54 1.6 12.9 0.00 0.00 0.00 27 1018.7
20260501185802 17 280 6.4 12.9 0.00 0.00 0.00 28 1018.8
20260501185601 17 294 3.2 9.7 0.00 0.00 0.00 26 1018.8
20260501185402 18 192 3.2 9.7 0.00 0.00 0.00 25 1018.8
20260501185202 18 173 4.8 9.7 0.00 0.00 0.00 26 1018.9
20260501185001 18 195 4.8 9.7 0.00 0.00 0.00 25 1018.9
20260501184802 18 178 3.2 9.7 0.00 0.00 0.00 22 1019.0
20260501184601 18 222 3.2 11.3 0.00 0.00 0.00 23 1019.0
20260501184401 18 190 1.6 11.3 0.00 0.00 0.00 24 1018.9
20260501184203 18 179 3.2 11.3 0.00 0.00 0.00 23 1019.0
20260501183802 17 204 3.2 8.0 0.00 0.00 0.00 25 1019.0
20260501183601 17 319 0.0 6.4 0.00 0.00 0.00 25 1019.1
20260501183402 17 49 1.6 6.4 0.00 0.00 0.00 24 1019.1
20260501183202 17 111 3.2 6.4 0.00 0.00 0.00 25 1019.1
20260501182801 17 76 3.2 8.0 0.00 0.00 0.00 25 1019.1
20260501182601 17 186 3.2 11.3 0.00 0.00 0.00 26 1019.1
20260501182402 17 275 1.6 12.9 0.00 0.00 0.00 26 1019.0
20260501182202 17 326 3.2 12.9 0.00 0.00 0.00 24 1019.1
20260501182002 17 322 4.8 12.9 0.00 0.00 0.00 24 1019.1
20260501181601 17 298 4.8 12.9 0.00 0.00 0.00 26 1019.1
20260501181201 17 272 4.8 11.3 0.00 0.00 0.00 25 1019.1
20260501181002 17 296 1.6 8.0 0.00 0.00 0.00 26 1019.1
20260501180802 17 290 3.2 9.7 0.00 0.00 0.00 27 1019.2
20260501180602 17 213 3.2 12.9 0.00 0.00 0.00 27 1019.2
20260501180202 17 171 4.8 12.9 0.00 0.00 0.00 28 1019.3
20260501180003 17 202 3.2 12.9 0.00 0.00 0.00 27 1019.2
20260501175801 17 167 4.8 12.9 0.00 0.00 0.00 26 1019.3
20260501175602 17 245 3.2 8.0 0.00 0.00 0.00 27 1019.3
20260501175402 17 195 1.6 8.0 0.00 0.00 0.00 28 1019.4
20260501175201 17 214 4.8 8.0 0.00 0.00 0.00 27 1019.4
20260501175002 17 168 4.8 9.7 0.00 0.00 0.00 26 1019.3
20260501174801 17 151 3.2 8.0 0.00 0.00 0.00 27 1019.4
20260501174602 17 210 4.8 8.0 0.00 0.00 0.00 28 1019.4
20260501174202 17 275 3.2 8.0 0.00 0.00 0.00 27 1019.4
20260501174001 17 279 3.2 8.0 0.00 0.00 0.00 26 1019.4
20260501173801 17 267 3.2 8.0 0.00 0.00 0.00 27 1019.4
20260501173601 17 240 3.2 8.0 0.00 0.00 0.00 28 1019.4
20260501173402 17 281 3.2 8.0 0.00 0.00 0.00 27 1019.4
20260501173201 17 227 1.6 6.4 0.00 0.00 0.00 26 1019.4
20260501173001 17 241 1.6 6.4 0.00 0.00 0.00 29 1019.4
20260501172801 17 242 3.2 6.4 0.00 0.00 0.00 27 1019.4
20260501172200 17 173 3.2 8.0 0.00 0.00 0.00 26 1019.5
20260501172000 16 277 0.0 8.0 0.00 0.00 0.00 27 1019.5